Location: Pedholt
(56.0260°N, 10.2097°E)
Time: 00:13:21
(UTC+00:00)

A-11 Canister half - Pass Details

Date: 05 August 2021
Orbit: 1514 x 1685 km, 47.2° (Epoch: 16 September)

Event Time Altitude Azimuth Distance (km) Brightness Sun altitude
Rises 13:19:13 0° 179° (S) 4,742 12.1 45.2°
Reaches altitude 10° 13:24:06 10° 157° (SSE) 3,798 11.5 44.8°
Maximum altitude 13:28:49 15° 128° (SE) 3,463 11.0 44.3°
Drops below altitude 10° 13:33:36 10° 98° (E) 3,874 10.9 43.9°
Sets 13:38:38 0° 77° (ENE) 4,896 11.3 43.4°
